User: anonymous   Login
Location: Unspecified
(0.0000°N, 0.0000°E)
Time: 01:02:30
(UTC+00:00)
Language:

MUOS - Orbit

View from above orbital plane
View from above orbital plane
View from above satellite
View from above satellite

Ground track
Ground track

The orbit data is extracted from the following two-line orbital elements,

1 38093U 12009A   14001.00000000 0.00000000  00000-0  00000-0 0    04
2 38093   4.4366 328.6889 0052436 182.8996 131.8070  1.00270000    05
Epoch (UTC): 01 January 2014 00:00:00
Eccentricity: 0.0052436
inclination: 4.4366°
perigee height: 35565 km
apogee height: 36008 km
right ascension of ascending node: 328.6889°
argument of perigee: 182.8996°
revolutions per day: 1.00270000
mean anomaly at epoch: 131.8070°
orbit number at epoch: 0

The dashed part of the orbit path shows where the satellite is in the earth's shadow,  

DLR